Location: Dompnac
(44.5644°N, 4.1026°E)
Time: 09:05:15
(UTC+00:00)

Cosmos 1634 Rocket - Visible Passes

Search period start: 17 January 2021 00:00
Search period end: 27 January 2021 00:00
Orbit: 959 x 993 km, 82.9° (Epoch: 16 January)

Date Brightness Start Highest point End Pass type
(mag) Time Alt. Az. Time Alt. Az. Time Alt. Az.
17 Jan 4.8 06:01:17 10° SSE 06:07:15 54° E 06:13:14 10° NNE visible
17 Jan 4.2 16:55:07 10° N 17:01:09 49° ENE 17:07:11 10° SSE visible
17 Jan 6.0 18:41:05 10° NNW 18:46:13 28° W 18:51:23 10° SW visible
18 Jan 6.8 04:45:03 10° ESE 04:48:13 15° ENE 04:51:23 10° NE visible
18 Jan 4.0 06:26:32 10° S 06:32:41 87° W 06:38:54 10° N visible
18 Jan 4.0 17:20:31 10° N 17:26:47 84° E 17:33:04 10° S visible
18 Jan 6.8 19:07:52 10° NW 19:11:19 16° W 19:14:46 10° WSW visible
19 Jan 6.1 05:08:18 10° SE 05:13:17 26° E 05:18:17 10° NNE visible
19 Jan 4.8 17:46:10 10° NNW 17:52:14 56° W 17:58:21 10° SSW visible
20 Jan 5.1 05:32:41 10° SSE 05:38:32 47° E 05:44:23 10° NNE visible
20 Jan 5.8 18:12:08 10° NNW 18:17:33 32° W 18:22:58 10° SSW visible
21 Jan 7.0 04:17:14 10° E 04:19:36 12° ENE 04:21:57 10° NE visible
21 Jan 4.1 05:57:46 10° S 06:03:56 83° E 06:10:08 10° N visible
21 Jan 6.7 18:38:39 10° NW 18:42:40 18° W 18:46:43 10° WSW visible
22 Jan 6.3 04:39:58 10° SE 04:44:37 23° E 04:49:17 10° NNE visible
22 Jan 4.0 06:23:28 10° SSW 06:29:30 57° WNW 06:35:36 10° N visible
22 Jan 4.6 17:17:21 10° NNW 17:23:31 65° W 17:29:43 10° S visible
23 Jan 5.3 05:04:08 10° SSE 05:09:48 40° E 05:15:31 10° NNE visible
23 Jan 5.7 17:43:13 10° NNW 17:48:52 37° W 17:54:31 10° SSW visible
24 Jan 7.1 03:50:09 10° E 03:50:59 10° ENE 03:51:50 10° ENE visible
24 Jan 4.2 05:29:04 10° S 05:35:10 72° E 05:41:20 10° NNE visible
24 Jan 6.6 18:09:33 10° NW 18:14:02 21° W 18:18:32 10° SW visible
25 Jan 6.4 04:11:42 10° SE 04:15:57 20° E 04:20:14 10° NE visible
25 Jan 3.9 05:54:35 10° SSW 06:00:42 66° W 06:06:53 10° N visible
25 Jan 7.1 18:37:20 10° WNW 18:39:01 11° WNW 18:40:44 10° W visible
26 Jan 5.5 04:35:37 10° SSE 04:41:06 35° E 04:46:37 10° NNE visible
26 Jan 4.4 06:20:45 10° SW 06:26:25 38° WNW 06:32:09 10° N visible
26 Jan 5.5 17:14:19 10° NNW 17:20:09 42° W 17:26:01 10° SSW visible
